UZB465 UZTT-OPIS

Flight info

Callsign UZB465
Flight time 1h 35m
Altitude 34000
Route N0450F340 KUFIM L170 MOSOM A114 OLRAM L148 AMDAR M875 TAPIS L509 GIDOG M696 LAJAK L509 NONIB J139 KALMI
Aircraft A320/M-VGDW/C

Departure

Time 2026-05-09 17:25
Airport Tashkent International Airport (UZTT)

Arrival

Time 2026-05-09 19:01
Airport Islamabad International Airport (OPIS)
Time Latitude Longitude Altitude Speed Heading
2026-05-09 17:11 41.26019 69.26941 1381 ft 0 kts 336°
2026-05-09 17:18 41.26023 69.26939 1379 ft 2 kts 336°
2026-05-09 17:18 41.26056 69.26930 1380 ft 7 kts
2026-05-09 17:19 41.26078 69.26969 1378 ft 6 kts 64°
2026-05-09 17:19 41.26100 69.27039 1381 ft 10 kts 68°
2026-05-09 17:19 41.26125 69.27119 1379 ft 9 kts 69°
2026-05-09 17:19 41.26102 69.27197 1380 ft 12 kts 137°
2026-05-09 17:20 41.26071 69.27291 1380 ft 13 kts 82°
2026-05-09 17:20 41.26087 69.27441 1382 ft 20 kts 81°
2026-05-09 17:20 41.26111 69.27652 1379 ft 26 kts 81°
2026-05-09 17:20 41.26138 69.27891 1380 ft 25 kts 81°
2026-05-09 17:21 41.26162 69.28112 1381 ft 24 kts 81°
2026-05-09 17:21 41.26185 69.28321 1380 ft 23 kts 82°
2026-05-09 17:21 41.26187 69.28549 1381 ft 26 kts 93°
2026-05-09 17:21 41.26184 69.28802 1381 ft 29 kts 88°
2026-05-09 17:22 41.26195 69.29077 1381 ft 31 kts 86°
2026-05-09 17:22 41.26206 69.29345 1382 ft 27 kts 87°
2026-05-09 17:22 41.26214 69.29586 1382 ft 25 kts 87°
2026-05-09 17:22 41.26222 69.29803 1378 ft 23 kts 87°
2026-05-09 17:23 41.26214 69.29985 1381 ft 16 kts 119°
2026-05-09 17:23 41.26139 69.30067 1382 ft 12 kts 143°
2026-05-09 17:23 41.26085 69.30110 1382 ft 7 kts 173°
2026-05-09 17:23 41.26060 69.30073 1379 ft 9 kts 262°
2026-05-09 17:25 41.26000 69.29503 1383 ft 92 kts 261°
2026-05-09 17:25 41.25878 69.28404 1378 ft 149 kts 262°
2026-05-09 17:25 41.25702 69.26864 1577 ft 176 kts 264°
2026-05-09 17:25 41.25521 69.25258 2331 ft 175 kts 264°
2026-05-09 17:26 41.25344 69.23653 2923 ft 182 kts 262°
2026-05-09 17:26 41.25151 69.21881 3218 ft 205 kts 263°
2026-05-09 17:26 41.24935 69.19902 3480 ft 229 kts 262°
2026-05-09 17:26 41.24699 69.17755 4107 ft 237 kts 262°
2026-05-09 17:27 41.24459 69.15581 4940 ft 238 kts 261°
2026-05-09 17:27 41.24215 69.13390 5711 ft 245 kts 261°
2026-05-09 17:27 41.23952 69.11048 6158 ft 266 kts 261°
2026-05-09 17:27 41.23676 69.08577 6867 ft 273 kts 261°
2026-05-09 17:28 41.23397 69.06098 7702 ft 276 kts 261°
2026-05-09 17:28 41.23108 69.03569 8577 ft 277 kts 261°
2026-05-09 17:28 41.22815 69.01028 9463 ft 279 kts 260°
2026-05-09 17:28 41.22742 69.00395 9683 ft 279 kts 260°
2026-05-09 17:29 41.22687 68.99918 9849 ft 280 kts 260°
2026-05-09 17:29 41.22628 68.99412 10006 ft 280 kts 260°
2026-05-09 17:29 41.22326 68.96824 10446 ft 298 kts 260°
2026-05-09 17:30 41.21993 68.93998 10672 ft 321 kts 260°
2026-05-09 17:30 41.21434 68.91060 11093 ft 334 kts 248°
2026-05-09 17:30 41.20296 68.88359 11777 ft 339 kts 233°
2026-05-09 17:30 41.18640 68.86126 12527 ft 343 kts 219°
2026-05-09 17:31 41.16551 68.84566 13323 ft 348 kts 204°
2026-05-09 17:31 41.14257 68.83495 14079 ft 350 kts 202°
2026-05-09 17:32 41.04994 68.79227 16795 ft 357 kts 203°
2026-05-09 17:32 41.02642 68.78145 17454 ft 359 kts 202°
2026-05-09 17:32 41.00267 68.77052 18130 ft 362 kts 203°
2026-05-09 17:33 40.97889 68.75956 18730 ft 364 kts 203°
2026-05-09 17:33 40.95486 68.74853 19282 ft 366 kts 203°
2026-05-09 17:33 40.93069 68.73743 19843 ft 369 kts 203°
2026-05-09 17:33 40.90634 68.72627 20408 ft 372 kts 203°
2026-05-09 17:34 40.88181 68.71501 20962 ft 374 kts 203°
2026-05-09 17:35 40.73062 68.64792 23859 ft 392 kts 202°
2026-05-09 17:35 40.70443 68.63699 24245 ft 395 kts 202°
2026-05-09 17:36 40.67824 68.62580 24628 ft 397 kts 203°
2026-05-09 17:36 40.65199 68.61417 24986 ft 399 kts 203°
2026-05-09 17:36 40.62607 68.60239 25341 ft 401 kts 204°
2026-05-09 17:36 40.59964 68.59026 25704 ft 403 kts 204°
2026-05-09 17:37 40.57308 68.57807 26047 ft 406 kts 204°
2026-05-09 17:37 40.54632 68.56595 26368 ft 409 kts 203°
2026-05-09 17:37 40.51921 68.55401 26701 ft 412 kts 202°
2026-05-09 17:37 40.49187 68.54240 27034 ft 414 kts 202°
2026-05-09 17:38 40.46427 68.53109 27366 ft 417 kts 201°
2026-05-09 17:38 40.43664 68.51994 27779 ft 416 kts 201°
2026-05-09 17:38 40.40926 68.50893 28113 ft 418 kts 201°
2026-05-09 17:39 40.35348 68.48619 28691 ft 421 kts 201°
2026-05-09 17:39 40.32539 68.47462 28929 ft 425 kts 202°
2026-05-09 17:39 40.29718 68.46298 29177 ft 427 kts 201°
2026-05-09 17:39 40.26877 68.45128 29443 ft 429 kts 201°
2026-05-09 17:40 40.24022 68.43957 29704 ft 431 kts 201°
2026-05-09 17:40 40.21154 68.42788 29961 ft 433 kts 201°
2026-05-09 17:40 40.19247 68.42013 30123 ft 433 kts 201°
2026-05-09 17:40 40.15434 68.40462 30488 ft 432 kts 201°
2026-05-09 17:41 40.13501 68.39674 30683 ft 432 kts 201°
2026-05-09 17:41 40.09692 68.38118 30981 ft 434 kts 202°
2026-05-09 17:41 40.06814 68.36940 31210 ft 435 kts 202°
2026-05-09 17:41 40.03926 68.35760 31486 ft 435 kts 202°
2026-05-09 17:42 40.02012 68.34979 31676 ft 435 kts 202°
2026-05-09 17:42 39.99122 68.33806 31961 ft 434 kts 202°
2026-05-09 17:42 39.96239 68.32639 32253 ft 434 kts 202°
2026-05-09 17:42 39.93379 68.31480 32539 ft 434 kts 202°
2026-05-09 17:43 39.89548 68.29928 32895 ft 433 kts 202°
2026-05-09 17:43 39.87602 68.29143 33096 ft 433 kts 202°
2026-05-09 17:43 39.84728 68.27980 33396 ft 432 kts 202°
2026-05-09 17:43 39.81894 68.26833 33673 ft 432 kts 202°
2026-05-09 17:44 39.79029 68.25676 33959 ft 432 kts 202°
2026-05-09 17:44 39.76151 68.24512 34063 ft 432 kts 202°
2026-05-09 17:44 39.73278 68.23348 34074 ft 432 kts 202°
2026-05-09 17:45 39.67552 68.21033 34078 ft 431 kts 202°
2026-05-09 17:45 39.61822 68.18730 34086 ft 431 kts 202°
2026-05-09 17:46 39.56149 68.16462 34100 ft 429 kts 202°
2026-05-09 17:46 39.50405 68.14328 34097 ft 430 kts 200°
2026-05-09 17:47 39.44624 68.12305 34103 ft 430 kts 200°
2026-05-09 17:47 39.38875 68.10290 34142 ft 427 kts 201°
2026-05-09 17:48 39.33167 68.08256 34146 ft 425 kts 201°
2026-05-09 17:48 39.27513 68.06233 34165 ft 423 kts 201°
2026-05-09 17:49 39.21842 68.04209 34148 ft 422 kts 200°
2026-05-09 17:49 39.16186 68.02199 34153 ft 420 kts 201°
2026-05-09 17:50 39.10559 68.00191 34154 ft 419 kts 200°
2026-05-09 17:50 39.02161 67.97211 34139 ft 418 kts 200°
2026-05-09 17:51 38.96596 67.95090 34140 ft 417 kts 202°
2026-05-09 17:51 38.91072 67.92856 34122 ft 416 kts 202°
2026-05-09 17:52 38.85542 67.90637 34110 ft 416 kts 202°
2026-05-09 17:52 38.80046 67.88475 34110 ft 416 kts 201°
2026-05-09 17:53 38.74507 67.86313 34058 ft 416 kts 201°
2026-05-09 17:53 38.68942 67.84147 34053 ft 419 kts 201°
2026-05-09 17:54 38.63335 67.82011 34029 ft 421 kts 201°
2026-05-09 17:54 38.57741 67.79892 34035 ft 422 kts 201°
2026-05-09 17:55 38.52113 67.77757 33991 ft 422 kts 202°
2026-05-09 17:55 38.46465 67.75611 33968 ft 425 kts 202°
2026-05-09 17:56 38.40800 67.73458 33970 ft 425 kts 202°
2026-05-09 17:57 38.32313 67.70244 33957 ft 426 kts 202°
2026-05-09 17:57 38.26619 67.68096 33940 ft 427 kts 202°
2026-05-09 17:58 38.20922 67.65967 33961 ft 427 kts 201°
2026-05-09 17:58 38.15156 67.64063 33951 ft 428 kts 200°
2026-05-09 17:59 38.09365 67.62286 33931 ft 428 kts 200°
2026-05-09 17:59 38.03619 67.60496 33914 ft 427 kts 200°
2026-05-09 18:00 37.97858 67.58655 33908 ft 427 kts 200°
2026-05-09 18:00 37.92098 67.56810 33910 ft 427 kts 200°
2026-05-09 18:01 37.86341 67.54976 33905 ft 427 kts 200°
2026-05-09 18:01 37.80628 67.53160 33890 ft 426 kts 201°
2026-05-09 18:02 37.74886 67.51339 33891 ft 425 kts 201°
2026-05-09 18:02 37.69148 67.49524 33888 ft 425 kts 201°
2026-05-09 18:03 37.63415 67.47711 33887 ft 425 kts 201°
2026-05-09 18:03 37.57720 67.45911 33870 ft 425 kts 200°
2026-05-09 18:04 37.52000 67.44109 33875 ft 424 kts 201°
2026-05-09 18:04 37.46272 67.42304 33926 ft 425 kts 201°
2026-05-09 18:04 37.43401 67.41403 34171 ft 425 kts 201°
2026-05-09 18:05 37.40534 67.40505 34451 ft 424 kts 201°
2026-05-09 18:05 37.37677 67.39612 34744 ft 422 kts 201°
2026-05-09 18:05 37.34827 67.38717 34875 ft 422 kts 201°
2026-05-09 18:06 37.29178 67.36942 34893 ft 421 kts 201°
2026-05-09 18:06 37.23389 67.35571 34895 ft 433 kts 189°
2026-05-09 18:06 37.20347 67.35845 34896 ft 446 kts 178°
2026-05-09 18:07 37.17320 67.36932 34896 ft 460 kts 166°
2026-05-09 18:07 37.11573 67.40767 34890 ft 470 kts 159°
2026-05-09 18:08 37.05881 67.44731 34902 ft 472 kts 159°
2026-05-09 18:08 37.00135 67.48710 34919 ft 472 kts 159°
2026-05-09 18:09 36.94386 67.52679 34927 ft 472 kts 159°
2026-05-09 18:09 36.88634 67.56641 34898 ft 473 kts 159°
2026-05-09 18:10 36.82913 67.60592 34918 ft 474 kts 159°
2026-05-09 18:10 36.77142 67.64571 34924 ft 475 kts 159°
2026-05-09 18:11 36.71355 67.68548 34930 ft 475 kts 159°
2026-05-09 18:11 36.65567 67.72527 34947 ft 475 kts 159°
2026-05-09 18:12 36.59818 67.76495 34956 ft 475 kts 159°
2026-05-09 18:12 36.54025 67.80485 34932 ft 476 kts 159°
2026-05-09 18:13 36.48230 67.84462 34938 ft 476 kts 159°
2026-05-09 18:13 36.42428 67.88427 34966 ft 477 kts 159°
2026-05-09 18:14 36.36605 67.92409 34992 ft 478 kts 159°
2026-05-09 18:14 36.30821 67.96351 34958 ft 478 kts 159°
2026-05-09 18:15 36.24989 68.00323 34986 ft 478 kts 159°
2026-05-09 18:15 36.19161 68.04305 35011 ft 479 kts 159°
2026-05-09 18:16 36.13322 68.08276 35023 ft 479 kts 159°
2026-05-09 18:16 36.07517 68.12203 35025 ft 479 kts 159°
2026-05-09 18:17 36.01666 68.16162 35058 ft 479 kts 159°
2026-05-09 18:17 35.95812 68.20114 35053 ft 480 kts 159°
2026-05-09 18:18 35.89951 68.24064 35039 ft 480 kts 159°
2026-05-09 18:18 35.84077 68.28024 35054 ft 481 kts 159°
2026-05-09 18:19 35.78234 68.31950 35073 ft 482 kts 159°
2026-05-09 18:19 35.69409 68.37863 35057 ft 482 kts 159°
2026-05-09 18:20 35.63511 68.41801 35067 ft 482 kts 159°
2026-05-09 18:20 35.57623 68.45745 35082 ft 482 kts 159°
2026-05-09 18:21 35.51754 68.49645 35095 ft 483 kts 159°
2026-05-09 18:21 35.45835 68.53557 35116 ft 484 kts 159°
2026-05-09 18:22 35.39898 68.57472 35124 ft 485 kts 159°
2026-05-09 18:22 35.33948 68.61392 35140 ft 485 kts 159°
2026-05-09 18:23 35.28055 68.65272 35146 ft 485 kts 159°
2026-05-09 18:23 35.22110 68.69186 35135 ft 486 kts 158°
2026-05-09 18:24 35.16160 68.73101 35120 ft 486 kts 159°
2026-05-09 18:25 35.07241 68.78932 35095 ft 487 kts 159°
2026-05-09 18:25 35.01257 68.82833 35091 ft 488 kts 159°
2026-05-09 18:26 34.95258 68.86749 35054 ft 489 kts 159°
2026-05-09 18:26 34.89251 68.90660 35038 ft 491 kts 159°
2026-05-09 18:27 34.83257 68.94560 35024 ft 492 kts 159°
2026-05-09 18:27 34.77230 68.98474 35031 ft 491 kts 159°
2026-05-09 18:28 34.71213 69.02375 35008 ft 490 kts 159°
2026-05-09 18:28 34.65187 69.06272 35000 ft 491 kts 159°
2026-05-09 18:29 34.59185 69.10146 34996 ft 492 kts 159°
2026-05-09 18:29 34.53422 69.14732 34971 ft 505 kts 143°
2026-05-09 18:29 34.50991 69.17839 34968 ft 512 kts 132°
2026-05-09 18:30 34.48979 69.21425 34970 ft 517 kts 121°
2026-05-09 18:30 34.45683 69.29184 34968 ft 518 kts 120°
2026-05-09 18:31 34.42407 69.36884 34949 ft 519 kts 120°
2026-05-09 18:31 34.39092 69.44660 34959 ft 519 kts 120°
2026-05-09 18:32 34.35774 69.52429 34979 ft 520 kts 120°
2026-05-09 18:32 34.32449 69.60203 34987 ft 521 kts 119°
2026-05-09 18:33 34.29143 69.67915 34986 ft 520 kts 119°
2026-05-09 18:33 34.25814 69.75682 34980 ft 521 kts 119°
2026-05-09 18:34 34.22469 69.83459 34989 ft 522 kts 120°
2026-05-09 18:34 34.19123 69.91214 34979 ft 519 kts 119°
2026-05-09 18:35 34.15793 69.98902 34982 ft 520 kts 119°
2026-05-09 18:35 34.12409 70.06607 34969 ft 520 kts 119°
2026-05-09 18:36 34.09028 70.14313 34956 ft 518 kts 119°
2026-05-09 18:36 34.05643 70.22021 34956 ft 521 kts 118°
2026-05-09 18:37 34.02266 70.29699 34989 ft 522 kts 118°
2026-05-09 18:37 33.98861 70.37431 34976 ft 522 kts 119°
2026-05-09 18:38 33.95487 70.45065 34992 ft 509 kts 119°
2026-05-09 18:38 33.91488 70.51970 34972 ft 500 kts 136°
2026-05-09 18:40 33.73887 70.72037 34204 ft 500 kts 139°
2026-05-09 18:40 33.71362 70.74896 33589 ft 499 kts 139°
2026-05-09 18:40 33.68835 70.77756 32943 ft 497 kts 139°
2026-05-09 18:41 33.66329 70.80591 32301 ft 495 kts 139°
2026-05-09 18:41 33.63860 70.83377 31679 ft 492 kts 139°
2026-05-09 18:41 33.61374 70.86179 31037 ft 489 kts 138°
2026-05-09 18:41 33.58906 70.88958 30432 ft 485 kts 137°
2026-05-09 18:42 33.56477 70.91693 29970 ft 473 kts 137°
2026-05-09 18:42 33.54110 70.94376 29136 ft 461 kts 135°
2026-05-09 18:42 33.52106 70.97257 28614 ft 443 kts 123°
2026-05-09 18:42 33.50625 71.00415 28087 ft 427 kts 112°
2026-05-09 18:43 33.49675 71.03729 27633 ft 418 kts 102°
2026-05-09 18:43 33.49218 71.07090 27210 ft 413 kts 92°
2026-05-09 18:43 33.49229 71.10499 26787 ft 407 kts 83°
2026-05-09 18:43 33.49448 71.13866 26376 ft 404 kts 83°
2026-05-09 18:44 33.49663 71.17208 25941 ft 400 kts 83°
2026-05-09 18:44 33.49872 71.20518 25517 ft 397 kts 83°
2026-05-09 18:44 33.50078 71.23800 25094 ft 394 kts 84°
2026-05-09 18:44 33.50284 71.27066 24658 ft 392 kts 84°
2026-05-09 18:45 33.50490 71.30317 24208 ft 390 kts 84°
2026-05-09 18:45 33.50695 71.33549 23761 ft 389 kts 84°
2026-05-09 18:45 33.50895 71.36732 23281 ft 388 kts 84°
2026-05-09 18:45 33.51095 71.39944 22801 ft 385 kts 84°
2026-05-09 18:46 33.51293 71.43129 22341 ft 382 kts 84°
2026-05-09 18:46 33.51485 71.46291 21888 ft 379 kts 84°
2026-05-09 18:46 33.51675 71.49432 21438 ft 377 kts 84°
2026-05-09 18:46 33.51865 71.52561 20992 ft 375 kts 84°
2026-05-09 18:47 33.52055 71.55664 20548 ft 373 kts 84°
2026-05-09 18:47 33.52243 71.58748 20092 ft 371 kts 84°
2026-05-09 18:47 33.52430 71.61792 19651 ft 370 kts 84°
2026-05-09 18:47 33.52617 71.64854 19210 ft 368 kts 84°
2026-05-09 18:48 33.52800 71.67912 18772 ft 367 kts 84°
2026-05-09 18:48 33.52980 71.70963 18323 ft 366 kts 84°
2026-05-09 18:48 33.53157 71.74004 17845 ft 365 kts 84°
2026-05-09 18:48 33.53331 71.77024 17409 ft 363 kts 84°
2026-05-09 18:49 33.53506 71.80033 16978 ft 361 kts 84°
2026-05-09 18:49 33.53682 71.83030 16505 ft 360 kts 84°
2026-05-09 18:49 33.53860 71.86021 16036 ft 359 kts 84°
2026-05-09 18:49 33.54036 71.88967 15583 ft 359 kts 84°
2026-05-09 18:50 33.54214 71.91950 15127 ft 359 kts 84°
2026-05-09 18:50 33.54392 71.94930 14658 ft 358 kts 84°
2026-05-09 18:50 33.54567 71.97908 14194 ft 358 kts 84°
2026-05-09 18:50 33.54740 72.00884 13732 ft 358 kts 84°
2026-05-09 18:51 33.54889 72.03845 13262 ft 356 kts 86°
2026-05-09 18:51 33.54940 72.06796 12826 ft 353 kts 88°
2026-05-09 18:51 33.54927 72.09733 12392 ft 350 kts 89°
2026-05-09 18:51 33.54888 72.12653 11921 ft 348 kts 90°
2026-05-09 18:52 33.54848 72.15516 11423 ft 348 kts 90°
2026-05-09 18:52 33.54818 72.18381 11050 ft 343 kts 90°
2026-05-09 18:52 33.54797 72.21234 10571 ft 342 kts 90°
2026-05-09 18:52 33.54783 72.24076 10158 ft 339 kts 89°
2026-05-09 18:53 33.54775 72.26846 10047 ft 326 kts 90°
2026-05-09 18:53 33.54769 72.29511 9910 ft 315 kts 90°
2026-05-09 18:53 33.54761 72.32111 9612 ft 310 kts 90°
2026-05-09 18:53 33.54752 72.34650 9246 ft 307 kts 90°
2026-05-09 18:54 33.54740 72.37204 8860 ft 305 kts 90°
2026-05-09 18:54 33.54729 72.39721 8234 ft 300 kts 90°
2026-05-09 18:54 33.54485 72.42184 7559 ft 296 kts 105°
2026-05-09 18:54 33.53755 72.44469 6969 ft 290 kts 114°
2026-05-09 18:55 33.52961 72.46679 6530 ft 289 kts 114°
2026-05-09 18:55 33.52170 72.48884 6185 ft 286 kts 114°
2026-05-09 18:55 33.51391 72.51065 5823 ft 283 kts 114°
2026-05-09 18:55 33.50624 72.53211 5465 ft 279 kts 114°
2026-05-09 18:56 33.50165 72.55403 5192 ft 274 kts 88°
2026-05-09 18:56 33.50742 72.57505 4958 ft 264 kts 52°
2026-05-09 18:56 33.52163 72.58772 4724 ft 253 kts 20°
2026-05-09 18:56 33.53812 72.59431 4480 ft 246 kts 15°
2026-05-09 18:57 33.55439 72.59977 4245 ft 240 kts 14°
2026-05-09 18:57 33.56927 72.60775 4071 ft 231 kts 42°
2026-05-09 18:57 33.57747 72.62342 3888 ft 221 kts 79°
2026-05-09 18:57 33.57693 72.64089 3780 ft 208 kts 103°
2026-05-09 18:58 33.57427 72.65744 3709 ft 196 kts 102°
2026-05-09 18:58 33.57190 72.67289 3723 ft 184 kts 102°
2026-05-09 18:58 33.56959 72.68775 3574 ft 179 kts 102°
2026-05-09 18:58 33.56734 72.70226 3379 ft 176 kts 103°
2026-05-09 18:59 33.56515 72.71639 3173 ft 168 kts 103°
2026-05-09 18:59 33.56312 72.72947 2982 ft 153 kts 103°
2026-05-09 18:59 33.56123 72.74164 2797 ft 146 kts 104°
2026-05-09 18:59 33.55938 72.75347 2622 ft 142 kts 103°
2026-05-09 19:00 33.55761 72.76481 2449 ft 138 kts 102°
2026-05-09 19:00 33.55409 72.78729 2099 ft 137 kts 101°
2026-05-09 19:00 33.55231 72.79848 1911 ft 137 kts 99°
2026-05-09 19:01 33.55057 72.80959 1774 ft 135 kts 99°
2026-05-09 19:01 33.54903 72.81949 1758 ft 101 kts 101°
2026-05-09 19:01 33.54809 72.82564 1756 ft 46 kts 100°
2026-05-09 19:01 33.54770 72.82825 1759 ft 22 kts 98°
2026-05-09 19:02 33.54780 72.83007 1764 ft 22 kts 77°
2026-05-09 19:02 33.54809 72.83118 1765 ft 12 kts 71°
2026-05-09 19:02 33.54837 72.83219 1767 ft 14 kts 71°
2026-05-09 19:02 33.54868 72.83336 1767 ft 16 kts 82°
2026-05-09 19:03 33.54900 72.83455 1766 ft 16 kts 25°
2026-05-09 19:03 33.54970 72.83475 1770 ft 8 kts 12°
2026-05-09 19:03 33.55029 72.83488 1772 ft 13 kts
2026-05-09 19:03 33.55156 72.83514 1771 ft 22 kts 11°
2026-05-09 19:04 33.55276 72.83544 1772 ft 14 kts 10°
2026-05-09 19:04 33.55336 72.83486 1770 ft 11 kts 286°
2026-05-09 19:04 33.55348 72.83399 1770 ft 10 kts 279°
2026-05-09 19:04 33.55359 72.83321 1773 ft 9 kts 276°
2026-05-09 19:05 33.55357 72.83297 1770 ft 7 kts 255°
2026-05-09 19:05 33.55339 72.83244 1770 ft 7 kts 279°
2026-05-09 19:05 33.55384 72.83197 1772 ft 9 kts 325°
2026-05-09 19:05 33.55412 72.83174 1772 ft 0 kts 326°